EGNV

Durham Tees Valley Airport

Airport
ICAO code
EGNV
IATA Code
MME
Summary
ICAO Region
EUR
ICAO Territory
Location

Middleton St. George, Darlington, England

Serving
Middlesbrough
Elevation
120 ft
Coordinates
54° 30' 33" N , 1° 25' 45" W
KCC
Metar
Observation
EGNV 261720Z 32007KT 9999 SCT031 05/01 Q1033
Station
Tees-Side
Date/Time
2023-01-26 17:20:00
Wind direction
320°
Wind speed
07 kts
Lowest cloud amount
scattered clouds
Temperature
5°C
Dew point
1°C
Humidity
75%
QNH
1033 hPa
Weather condition
n/a

Description

Durham Tees Valley Airport is a small international airport located near Darlington, North East England. About 16 km southwest of Middlesbrough and 39 km south of Durham. The airport serves County Durham, Teesside and parts of North Yorkshire. The airport is still widely recognised by its previous name, Teesside International Airport.

Climatology

Temperate Marine climate/Oceanic climate (Köppen climate classification Cfb). Moderately cool summer and comparatively warm winter with a temperature range of only 14°C. Prevailing south-westerly winds from the Atlantic Ocean.

Runways

Designator Length Width Surface Rops
5/23 2291 46 ASP Yes/Yes

Airport map

Aerial View

SKYbrary Partners:

Safety knowledge contributed by: